Find Starlink 36184

NORAD ID: 67021 Int'l Des: 2025-293 Owner: SPXS Country: US Constellation: starlink operational
LEOCIRCULAR

現在のビュー

3D地球を読み込み中...

Starlink 36184について

説明を読み込み中...

次回通過

Passes for default location (London). Set your location on the main map for personalized predictions.

高度履歴

Loading altitude history...

軌道要素

1 67021U 25293U 26146.58731596 .00004172 00000-0 35735-3 0 9990
2 67021 70.0010 258.1437 0003490 269.6576 90.4184 14.98319123 26558
Epoch: May 26, 2026 • Age: 5 hours

現在のステータス

高度 576.0 km
速度 7.57 km/s
衛星直下点 26.75°N, 110.97°W
打ち上げ日 Dec 10, 2025
運用期間 0.4 years
タイプ internet

技術仕様

分類 Payload
質量 575.00 kg
乾燥質量 530.00 kg
総質量 575.00 kg
長さ 0.30 m
直径 4.10 m
スパン 29.00 m
形状 Box + pan
製造者 SPXS
バスタイプ Starlink V2MO
フェーズステータス In Orbit
所有者/国 SPXS/US

Most Searched